[[{"header":{"parameterUnit":"m.s-1","parameterCategory":2,"la1":30.2991,"la2":30.254,"lo1":-89.0895,"lo2":-89.0444,"dy":0.0017,"dx":0.0017,"nx":28,"ny":28,"refTime":"2024-12-15T03:00:00:Z","depth":"0","parameterNumber":2,"parameterNumberName":"U-component_of_CURRENTS"},"data":[0,0,0,0,0,0,0,0,0,0,0,0,0,0,0,0,0,0,0,0,0,0,0,0,0,0,0,0,0,0,0,0,0,0,0,0,0,0,0,0,0,0,0,0,0,0,0,0,0,0,0,0,0,0,0,0,0,0,-0.3232,-0.3233,0,-0.3266,-0.3266,-0.3266,-0.3228,-0.3226,-0.3225,-0.3224,-0.317,-0.3169,-0.3169,0,0,0,0,0,0,0,0,0,0,0,0,0,-0.313,-0.3132,-0.3232,-0.3233,-0.3233,-0.3266,-0.3266,-0.3266,-0.3228,-0.3226,-0.3225,-0.3224,-0.317,-0.3169,-0.3169,0,0,0,0,0,0,0,0,0,0,0,0,0,-0.3167,-0.3132,-0.3232,-0.322,-0.322,-0.3266,-0.3266,-0.3266,-0.3228,-0.3226,-0.3225,-0.3223,-0.317,-0.3169,-0.3169,-0.32,0,0,-0.3167,-0.3167,0,0,0,0,0,0,0,0,-0.3165,-0.317,-0.3221,-0.3221,-0.3221,-0.3244,-0.3211,-0.3241,-0.3228,-0.3221,-0.3224,-0.3222,-0.319,-0.3187,-0.3194,-0.3198,-0.3195,-0.3167,-0.3167,-0.3166,-0.3166,0,0,0,0,0,0,0,-0.3162,-0.3169,-0.3242,-0.3222,-0.3222,-0.3213,-0.3216,-0.3216,-0.3211,-0.3222,-0.322,-0.323,-0.3188,-0.3195,-0.3192,-0.3194,-0.3167,-0.3167,-0.3166,-0.3166,-0.3213,-0.3214,0,0,0,0,0,0,-0.3168,-0.3167,-0.3241,-0.3243,-0.3192,-0.3216,-0.322,-0.3235,-0.3213,-0.3209,-0.3231,-0.3228,-0.3197,-0.3193,-0.319,-0.322,-0.3166,-0.3166,-0.3166,-0.3211,-0.3213,-0.3215,0,0,0,0,0,0,-0.3165,-0.3174,-0.324,-0.3208,-0.3216,-0.322,-0.3238,-0.3237,-0.3236,-0.3221,-0.3215,-0.323,-0.3195,-0.3191,-0.3194,-0.3218,-0.3166,-0.3165,-0.3209,-0.3212,-0.3214,-0.3284,0,0,0,0,0,0,-0.3162,-0.3173,-0.318,-0.3209,-0.3218,-0.3271,-0.324,-0.3239,-0.3247,-0.3242,-0.3219,-0.3212,-0.3193,-0.3195,-0.3193,-0.3216,-0.3165,-0.3207,-0.321,-0.3213,-0.328,-0.3288,-0.3296,0,0,0,0,0,-0.3159,-0.3178,-0.318,-0.3189,-0.3229,-0.3273,-0.3277,-0.3271,-0.3248,-0.326,-0.3242,-0.3213,-0.3212,-0.3196,-0.3194,-0.3217,-0.3206,-0.3209,-0.3213,-0.3276,-0.3287,-0.3296,0,0,0,0,0,0,-0.3132,-0.3177,-0.318,-0.3209,-0.3241,-0.3267,-0.3274,-0.3275,-0.3272,-0.3259,-0.3233,-0.3227,-0.3241,-0.3223,-0.3206,-0.324,-0.3205,-0.3208,-0.3254,-0.3263,-0.3271,-0.3271,-0.3164,0,0,0,0,0,-0.3134,-0.3155,-0.3201,-0.322,-0.3239,-0.3257,-0.3269,-0.3275,-0.3282,-0.3278,-0.3266,-0.3254,-0.3259,-0.3253,-0.3254,-0.3272,-0.3241,-0.3286,-0.3294,-0.3301,-0.3301,-0.3285,-0.3291,-0.3226,-0.3226,-0.3226,0,0,-0.3125,-0.3154,-0.3162,-0.3216,-0.3233,-0.3277,-0.3258,-0.3287,-0.3316,-0.3274,-0.3293,-0.3283,-0.3271,-0.3293,-0.3297,-0.3277,-0.3304,-0.3306,-0.3312,-0.3307,-0.3289,-0.3295,-0.33,-0.3229,-0.3228,-0.3228,0,0,-0.3129,-0.3149,-0.3174,-0.3212,-0.3257,-0.3281,-0.3292,-0.3328,-0.3333,-0.3362,-0.334,-0.3345,-0.3348,-0.335,-0.3349,-0.3403,-0.335,-0.3402,-0.3439,-0.3424,-0.3429,-0.3433,-0.3398,-0.3398,-0.3403,-0.3403,-0.3403,0,-0.3114,-0.3159,-0.3186,-0.3233,-0.3264,-0.3286,-0.3329,-0.3355,-0.3384,-0.3393,-0.3373,-0.3389,-0.3378,-0.3406,-0.3426,-0.3421,-0.3392,-0.3401,-0.3433,-0.3436,-0.3439,-0.3402,-0.3401,-0.3407,-0.3407,-0.3406,-0.3406,0,-0.3146,-0.3187,-0.3207,-0.3273,-0.3313,-0.3352,-0.3405,-0.3433,-0.3439,-0.3457,-0.3482,-0.3474,-0.3475,-0.3484,-0.3469,-0.3494,-0.346,-0.3447,-0.3405,-0.3449,-0.3408,-0.3406,-0.3412,-0.3411,-0.341,-0.3409,0,0,-0.3093,-0.3207,-0.321,-0.325,-0.3338,-0.337,-0.3435,-0.3493,-0.3515,-0.3541,-0.3561,-0.3583,-0.3564,-0.3562,-0.3549,-0.3542,-0.3539,-0.3503,-0.3501,-0.3462,-0.3486,-0.3382,-0.3368,-0.3525,-0.3525,-0.3526,-0.3448,0,-0.3103,-0.3188,-0.3248,-0.3322,-0.337,-0.3431,-0.3485,-0.3539,-0.3567,-0.3594,-0.36,-0.361,-0.36,-0.359,-0.359,-0.3555,-0.3537,-0.356,-0.3454,-0.3451,-0.3347,-0.3364,-0.3229,-0.3141,-0.3446,-0.3445,-0.3445,0,-0.3107,-0.3167,-0.3244,-0.3348,-0.3373,-0.3419,-0.3494,-0.3549,-0.3609,-0.3627,-0.3649,-0.3646,-0.3658,-0.3628,-0.3594,-0.3605,-0.3549,-0.3516,-0.3512,-0.3386,-0.3342,-0.3147,-0.3125,-0.3096,-0.3441,-0.3441,-0.3441,0,-0.3038,-0.3157,-0.3211,-0.3251,-0.3375,-0.3408,-0.3464,-0.3541,-0.3576,-0.3634,-0.3643,-0.367,-0.3649,-0.3624,-0.3562,-0.3574,-0.3497,-0.3502,-0.3355,-0.3346,-0.3194,-0.3172,-0.3123,-0.3458,-0.3458,-0.3458,-0.3459,0,-0.3021,-0.3059,-0.3178,-0.3207,-0.3255,-0.3361,-0.3405,-0.3468,-0.3544,-0.3567,-0.3634,-0.3634,-0.3642,-0.3603,-0.3563,-0.3441,-0.3492,-0.3354,-0.3319,-0.3215,-0.3196,-0.3134,-0.3158,-0.3455,-0.3456,-0.3457,-0.3457,0,-0.2926,-0.3016,-0.3073,-0.3192,-0.3223,-0.3246,-0.3354,-0.3385,-0.3475,-0.3505,-0.3518,-0.3585,-0.354,-0.3523,-0.346,-0.3403,-0.3255,-0.3261,-0.3127,-0.3078,-0.2921,-0.2954,-0.2847,-0.277,-0.3099,-0.3096,-0.3093,0,-0.2883,-0.2905,-0.3015,-0.3035,-0.3081,-0.3143,-0.318,-0.3313,-0.3353,-0.3458,-0.3453,-0.345,-0.3398,-0.3288,-0.3212,-0.3107,-0.3106,-0.2916,-0.2921,-0.2884,-0.2897,-0.2921,-0.2868,-0.2749,-0.2744,-0.274,-0.2736,0,-0.2778,-0.2813,-0.2854,-0.2898,-0.2938,-0.2986,-0.3057,-0.308,-0.3224,-0.3249,-0.3258,-0.3228,-0.3161,-0.3003,-0.289,-0.2822,-0.2842,-0.2823,-0.2822,-0.2645,-0.263,-0.2548,-0.2832,-0.2699,-0.2702,-0.2705,-0.2707,-0.2709,-0.2663,-0.2657,-0.2707,-0.2729,-0.2773,-0.2786,-0.2766,-0.2856,-0.2872,-0.2879,-0.2987,-0.2902,-0.2843,-0.2669,-0.2601,-0.2455,-0.2546,-0.2389,-0.2439,-0.2472,-0.2378,-0.2568,-0.2378,-0.2379,-0.2381,-0.2382,-0.2384,0,-0.2507,-0.2521,-0.2537,-0.2556,-0.2525,-0.2609,-0.2643,-0.259,-0.2538,-0.2599,-0.2572,-0.2517,-0.2355,-0.2332,-0.2211,-0.2108,-0.2078,-0.2072,-0.2093,-0.2062,-0.2241,-0.2205,-0.1922,-0.1922,-0.1922,-0.1922,-0.1922,-0.1922,-0.2427,-0.2382,-0.2394,-0.2291,-0.2294,-0.2193,-0.2165,-0.2115,-0.2118,-0.2036,-0.2046,-0.211,-0.2103,-0.2196,-0.2045,-0.195,-0.1921,-0.1847,-0.1902,-0.2063,-0.2098,-0.2131,-0.2102,-0.1803,-0.1803,-0.1639,-0.1638,-0.1637]},{"header":{"parameterUnit":"m.s-1","parameterCategory":2,"la1":30.2991,"la2":30.254,"lo1":-89.0895,"lo2":-89.0444,"dy":0.0017,"dx":0.0017,"nx":28,"ny":28,"refTime":"2024-12-15T03:00:00:Z","depth":"0","parameterNumber":3,"parameterNumberName":"V-component_of_CURRENTS"},"data":[0,0,0,0,0,0,0,0,0,0,0,0,0,0,0,0,0,0,0,0,0,0,0,0,0,0,0,0,0,0,0,0,0,0,0,0,0,0,0,0,0,0,0,0,0,0,0,0,0,0,0,0,0,0,0,0,0,0,-0.0335,-0.0334,0,-0.0226,-0.0225,-0.0224,-0.0148,-0.0147,-0.0147,-0.0146,0.0003,0.0007,0.001,0,0,0,0,0,0,0,0,0,0,0,0,0,-0.0423,-0.0422,-0.0335,-0.0334,-0.0333,-0.0226,-0.0225,-0.0223,-0.0148,-0.0147,-0.0147,-0.0146,0.0002,0.0006,0.001,0,0,0,0,0,0,0,0,0,0,0,0,0,-0.0356,-0.0422,-0.0336,-0.0283,-0.0278,-0.0227,-0.0225,-0.0223,-0.0148,-0.0147,-0.0146,-0.0146,0.0001,0.0006,0.0011,0.003,0,0,0.0027,0.003,0,0,0,0,0,0,0,0,-0.036,-0.0352,-0.0292,-0.0287,-0.0281,-0.0201,-0.0201,-0.0137,-0.0148,-0.0196,-0.0146,-0.0146,-0.0063,-0.0052,-0.0032,0.0037,0.0044,0.0028,0.0031,0.0033,0.0035,0,0,0,0,0,0,0,-0.0364,-0.0356,-0.0291,-0.0291,-0.0284,-0.0247,-0.0237,-0.0188,-0.0133,-0.0191,-0.0186,-0.0176,-0.0059,-0.0037,-0.0028,0.0046,0.0028,0.0032,0.0036,0.0038,0.0157,0.0157,0,0,0,0,0,0,-0.0384,-0.0361,-0.0294,-0.0288,-0.0321,-0.0246,-0.0235,-0.0226,-0.0134,-0.012,-0.0177,-0.0173,-0.0047,-0.0034,-0.0022,0.0012,0.0033,0.0038,0.0041,0.0157,0.0157,0.0157,0,0,0,0,0,0,-0.0387,-0.0379,-0.0299,-0.0323,-0.031,-0.0246,-0.0236,-0.0224,-0.0203,-0.0124,-0.0108,-0.0168,-0.0046,-0.003,0.0021,0.0018,0.0041,0.0046,0.0157,0.0157,0.0157,0.0076,0,0,0,0,0,0,-0.039,-0.0381,-0.0385,-0.0324,-0.031,-0.028,-0.0237,-0.0223,-0.0198,-0.0192,-0.0111,-0.0096,-0.0044,0.0012,0.0026,0.0026,0.005,0.0157,0.0157,0.0157,0.0079,0.0073,0.0069,0,0,0,0,0,-0.0393,-0.0406,-0.0386,-0.0378,-0.0316,-0.028,-0.027,-0.022,-0.0199,-0.0197,-0.0137,-0.0099,0.0022,0.0016,0.0032,0.0034,0.0157,0.0157,0.0157,0.0081,0.0074,0.0069,0,0,0,0,0,0,-0.0446,-0.0397,-0.0374,-0.0371,-0.0333,-0.0268,-0.0264,-0.0229,-0.018,-0.0174,-0.0097,-0.0079,-0.0037,0.0009,0.0001,0.0068,0.0095,0.0098,0.0032,0.0026,0.0021,-0.0003,0.0054,0,0,0,0,0,-0.0461,-0.0457,-0.0402,-0.0401,-0.0387,-0.0327,-0.0307,-0.0274,-0.0222,-0.02,-0.0142,-0.0079,-0.0025,0.0007,0.0059,0.0095,0.015,0.0107,0.0102,0.0097,0.0089,0.0169,0.017,0.0157,0.0157,0.0157,0,0,-0.0481,-0.0455,-0.0452,-0.0412,-0.0379,-0.0368,-0.0313,-0.0292,-0.0276,-0.0192,-0.0157,-0.0098,-0.002,0.0022,0.0045,0.0061,0.0131,0.0097,0.0092,0.0087,0.0169,0.017,0.0172,0.0156,0.0156,0.0156,0,0,-0.0528,-0.0498,-0.0513,-0.0488,-0.0448,-0.0406,-0.0405,-0.0345,-0.0312,-0.0272,-0.0205,-0.0147,-0.0071,-0.0009,0.0031,0.0029,0.0098,0.0041,0.0002,0.0079,0.0081,0.0083,0.0157,0.0166,0.0043,0.0042,0.0042,0,-0.0557,-0.0564,-0.0513,-0.052,-0.0506,-0.043,-0.0441,-0.0396,-0.0326,-0.0294,-0.0275,-0.0145,-0.0083,-0.0013,-0.0017,0.0018,0.0068,0.0017,0.0072,0.0075,0.0079,0.0154,0.0166,0.0038,0.0039,0.0039,0.004,0,-0.0613,-0.0617,-0.0625,-0.0606,-0.0582,-0.058,-0.0513,-0.0479,-0.0429,-0.0374,-0.0301,-0.0211,-0.0129,-0.0104,-0.0062,-0.0005,0.0025,0.0052,0.0083,0.0075,0.0156,0.0169,0.0033,0.0034,0.0035,0.0036,0,0,-0.0676,-0.0668,-0.067,-0.0677,-0.0628,-0.0614,-0.0583,-0.0525,-0.0493,-0.0419,-0.0369,-0.0276,-0.0216,-0.0167,-0.0097,-0.0037,0.0033,0.0005,0.0011,0.007,0.0201,0.0249,0.0269,0.0067,0.0069,0.007,0.0248,0,-0.0735,-0.0782,-0.0747,-0.0772,-0.0787,-0.0707,-0.0683,-0.0616,-0.0539,-0.0469,-0.036,-0.0293,-0.024,-0.0202,-0.013,-0.0002,0.0063,-0.0018,0.0207,0.0214,0.0252,0.0285,0.0318,0.0481,0.0262,0.0264,0.0265,0,-0.0797,-0.082,-0.087,-0.0856,-0.0852,-0.0847,-0.0778,-0.0743,-0.0619,-0.0557,-0.0457,-0.0365,-0.0248,-0.0216,-0.0,-0.0056,0.0056,0.0148,0.0158,0.0238,0.0287,0.0455,0.0514,0.067,0.0287,0.0285,0.0283,0,-0.0876,-0.0896,-0.0941,-0.094,-0.0914,-0.0907,-0.0877,-0.0775,-0.0735,-0.0609,-0.0557,-0.0401,-0.0315,-0.0158,0.0044,0.0023,0.0279,0.0286,0.0435,0.0441,0.0532,0.0542,0.0762,0.0421,0.042,0.042,0.0419,0,-0.0952,-0.0982,-0.0986,-0.1012,-0.1044,-0.0989,-0.0981,-0.0917,-0.0818,-0.0762,-0.0612,-0.0524,-0.0302,-0.0121,0.0045,0.0299,0.0297,0.0438,0.0494,0.0505,0.051,0.0699,0.0747,0.0427,0.0425,0.0424,0.0423,0,-0.103,-0.1035,-0.1086,-0.1087,-0.1089,-0.111,-0.1069,-0.1048,-0.0943,-0.086,-0.0826,-0.0603,-0.0356,-0.0117,0.0165,0.0309,0.0643,0.0617,0.0612,0.0663,0.0922,0.0962,0.1229,0.132,0.0809,0.0812,0.0814,0,-0.1073,-0.1114,-0.1156,-0.1191,-0.1198,-0.1213,-0.1217,-0.1129,-0.1091,-0.0896,-0.0857,-0.0608,-0.0396,0.0051,0.0343,0.0667,0.077,0.0862,0.0822,0.0957,0.1043,0.1066,0.1124,0.092,0.0923,0.0925,0.0927,0,-0.115,-0.1166,-0.1208,-0.1293,-0.1323,-0.1341,-0.133,-0.132,-0.1189,-0.1073,-0.0869,-0.0682,-0.0243,0.0155,0.0559,0.0748,0.0976,0.0915,0.1073,0.1163,0.1187,0.1295,0.0776,0.0946,0.0944,0.0943,0.0942,0.0941,-0.119,-0.1246,-0.1307,-0.1377,-0.1418,-0.1444,-0.1442,-0.1384,-0.1293,-0.1077,-0.0897,-0.0555,-0.0019,0.0574,0.0786,0.1211,0.1157,0.1326,0.137,0.1386,0.1455,0.097,0.1183,0.1183,0.1182,0.1182,0.1181,0,-0.1234,-0.1299,-0.1383,-0.1456,-0.1506,-0.1505,-0.1489,-0.1429,-0.1301,-0.1061,-0.0811,-0.0171,0.0358,0.0836,0.1428,0.1652,0.1688,0.1761,0.1808,0.185,0.1456,0.144,0.1697,0.1697,0.1697,0.1697,0.1697,0.1696,-0.1258,-0.1351,-0.1401,-0.1502,-0.1547,-0.156,-0.1539,-0.141,-0.1226,-0.0801,-0.0411,-0.0097,0.0576,0.1494,0.2023,0.2073,0.2244,0.2232,0.2326,0.205,0.2012,0.1976,0.1976,0.234,0.2341,0.2707,0.2711,0.2713]}],[{"header":{"parameterUnit":"m.s-1","parameterCategory":2,"la1":30.2991,"la2":30.254,"lo1":-89.0895,"lo2":-89.0444,"dy":0.0017,"dx":0.0017,"nx":28,"ny":28,"refTime":"2024-12-15T03:00:00:Z","depth":"2","parameterNumber":2,"parameterNumberName":"U-component_of_CURRENTS"},"data":[0,0,0,0,0,0,0,0,0,0,0,0,0,0,0,0,0,0,0,0,0,0,0,0,0,0,0,0,0,0,0,0,0,0,0,0,0,0,0,0,0,0,0,0,0,0,0,0,0,0,0,0,0,0,0,0,0,0,-0.2779,-0.2779,0,-0.2811,-0.2811,-0.2812,-0.2786,-0.2786,-0.2785,-0.2784,-0.2752,-0.2752,-0.2752,0,0,0,0,0,0,0,0,0,0,0,0,0,-0.2695,-0.2697,-0.2779,-0.2779,-0.278,-0.2811,-0.2811,-0.2812,-0.2787,-0.2786,-0.2785,-0.2784,-0.2752,-0.2752,-0.2752,0,0,0,0,0,0,0,0,0,0,0,0,0,-0.2727,-0.2697,-0.2779,-0.2773,-0.2773,-0.2811,-0.2811,-0.2812,-0.2787,-0.2786,-0.2784,-0.2783,-0.2752,-0.2752,-0.2752,-0.2776,0,0,-0.2752,-0.2752,0,0,0,0,0,0,0,0,-0.2726,-0.273,-0.2774,-0.2774,-0.2774,-0.2796,-0.2771,-0.2798,-0.2787,-0.2779,-0.2784,-0.2783,-0.2764,-0.2763,-0.2768,-0.2775,-0.2773,-0.2752,-0.2752,-0.2752,-0.2752,0,0,0,0,0,0,0,-0.2723,-0.2729,-0.2789,-0.2774,-0.2775,-0.277,-0.2773,-0.2776,-0.2774,-0.2779,-0.2778,-0.2787,-0.2763,-0.2769,-0.2767,-0.2773,-0.2752,-0.2752,-0.2752,-0.2752,-0.2802,-0.2804,0,0,0,0,0,0,-0.2727,-0.2727,-0.2788,-0.279,-0.2749,-0.2773,-0.2776,-0.2788,-0.2776,-0.2774,-0.2788,-0.2786,-0.277,-0.2768,-0.2766,-0.2801,-0.2752,-0.2752,-0.2752,-0.2801,-0.2803,-0.2804,0,0,0,0,0,0,-0.2725,-0.2732,-0.2787,-0.2761,-0.2768,-0.2776,-0.2789,-0.2789,-0.2795,-0.2784,-0.278,-0.2793,-0.2768,-0.2766,-0.2776,-0.2799,-0.2752,-0.2752,-0.2799,-0.2801,-0.2803,-0.2865,0,0,0,0,0,0,-0.2722,-0.2731,-0.2739,-0.2761,-0.2769,-0.2815,-0.2791,-0.2791,-0.2803,-0.28,-0.2787,-0.2783,-0.2767,-0.2776,-0.2776,-0.2798,-0.2751,-0.2797,-0.28,-0.2803,-0.2861,-0.2869,-0.2875,0,0,0,0,0,-0.2719,-0.2736,-0.2739,-0.2746,-0.278,-0.2817,-0.282,-0.2819,-0.2805,-0.2817,-0.2807,-0.2783,-0.2792,-0.2778,-0.2777,-0.2799,-0.2796,-0.2799,-0.2802,-0.2858,-0.2867,-0.2875,0,0,0,0,0,0,-0.2701,-0.2736,-0.2739,-0.2765,-0.2792,-0.2813,-0.2822,-0.2826,-0.2829,-0.2822,-0.2802,-0.2799,-0.2817,-0.2803,-0.2787,-0.2822,-0.2791,-0.2794,-0.2833,-0.2842,-0.2849,-0.2848,-0.2751,0,0,0,0,0,-0.2703,-0.2721,-0.2758,-0.2776,-0.2792,-0.2809,-0.2821,-0.2828,-0.2837,-0.2837,-0.2832,-0.2826,-0.2832,-0.2831,-0.2833,-0.2853,-0.2826,-0.2867,-0.2875,-0.2881,-0.2881,-0.2868,-0.2874,-0.2814,-0.2814,-0.2814,0,0,-0.2698,-0.2721,-0.2729,-0.2773,-0.2789,-0.2825,-0.2812,-0.284,-0.2866,-0.2834,-0.2857,-0.2853,-0.2844,-0.2867,-0.2873,-0.2855,-0.2883,-0.2885,-0.289,-0.2886,-0.2872,-0.2877,-0.2882,-0.2817,-0.2816,-0.2816,0,0,-0.2704,-0.2722,-0.2743,-0.2775,-0.2814,-0.2834,-0.2845,-0.2878,-0.2886,-0.2916,-0.29,-0.2909,-0.2918,-0.2919,-0.2918,-0.2968,-0.2924,-0.297,-0.3003,-0.2992,-0.2996,-0.2999,-0.2967,-0.2967,-0.2971,-0.2971,-0.2971,0,-0.2695,-0.2731,-0.2755,-0.2792,-0.2819,-0.2841,-0.2877,-0.29,-0.2931,-0.2942,-0.2929,-0.295,-0.2943,-0.2968,-0.2987,-0.2984,-0.296,-0.297,-0.3,-0.3002,-0.3005,-0.2971,-0.297,-0.2975,-0.2974,-0.2974,-0.2974,0,-0.2722,-0.2757,-0.2774,-0.2828,-0.2862,-0.2896,-0.2941,-0.2969,-0.298,-0.2998,-0.3026,-0.3022,-0.3028,-0.3036,-0.3026,-0.305,-0.3022,-0.3011,-0.2974,-0.3014,-0.2976,-0.2975,-0.2979,-0.2978,-0.2977,-0.2976,0,0,-0.2681,-0.2774,-0.2778,-0.281,-0.2884,-0.2911,-0.2968,-0.3019,-0.3042,-0.307,-0.3093,-0.3115,-0.3105,-0.3105,-0.3096,-0.3091,-0.3091,-0.3062,-0.306,-0.3024,-0.3048,-0.2953,-0.2941,-0.3083,-0.3083,-0.3083,-0.3012,0,-0.269,-0.2758,-0.2808,-0.2869,-0.2908,-0.2961,-0.3009,-0.3058,-0.3088,-0.3118,-0.3126,-0.3143,-0.3134,-0.3133,-0.3133,-0.3105,-0.3089,-0.311,-0.302,-0.3016,-0.2923,-0.2938,-0.2728,-0.264,-0.301,-0.301,-0.3009,0,-0.2692,-0.274,-0.2803,-0.289,-0.291,-0.2951,-0.302,-0.3069,-0.3128,-0.315,-0.3175,-0.3178,-0.3192,-0.3169,-0.3138,-0.3151,-0.3104,-0.3075,-0.3071,-0.2958,-0.2918,-0.2662,-0.2622,-0.3005,-0.3006,-0.3006,-0.3006,0,-0.2632,-0.2731,-0.2775,-0.2807,-0.2912,-0.2943,-0.2994,-0.3066,-0.3099,-0.3162,-0.3176,-0.3203,-0.3192,-0.3169,-0.3118,-0.3128,-0.3062,-0.3063,-0.293,-0.2922,-0.2712,-0.2685,-0.3025,-0.3025,-0.3025,-0.3026,-0.3026,0,-0.2614,-0.2645,-0.2748,-0.2771,-0.2812,-0.2906,-0.2949,-0.3007,-0.3082,-0.3105,-0.3174,-0.3175,-0.3189,-0.3158,-0.3121,-0.3011,-0.3059,-0.2929,-0.2899,-0.2728,-0.2704,-0.2999,-0.2997,-0.3023,-0.3024,-0.3024,-0.3025,0,-0.253,-0.2607,-0.2653,-0.2756,-0.2784,-0.2807,-0.2906,-0.2935,-0.3025,-0.3056,-0.3073,-0.3139,-0.3101,-0.3089,-0.3035,-0.2982,-0.291,-0.2853,-0.2644,-0.259,-0.2779,-0.2781,-0.2706,-0.2702,-0.2699,-0.2696,-0.2694,0,-0.249,-0.2507,-0.2602,-0.2618,-0.2659,-0.2717,-0.275,-0.2874,-0.2909,-0.3013,-0.3008,-0.3016,-0.2963,-0.2868,-0.2794,-0.2696,-0.279,-0.245,-0.2436,-0.2769,-0.2747,-0.2754,-0.2761,-0.2177,-0.2171,-0.2166,-0.2161,0,-0.2393,-0.2426,-0.2458,-0.2493,-0.2529,-0.257,-0.2634,-0.2652,-0.2786,-0.2806,-0.2812,-0.2783,-0.2727,-0.2537,-0.2443,-0.2366,-0.246,-0.234,-0.2723,-0.2302,-0.2267,-0.2247,-0.2271,-0.2115,-0.212,-0.2123,-0.2126,-0.2127,-0.2293,-0.2284,-0.2324,-0.2337,-0.2378,-0.2383,-0.2356,-0.2433,-0.2437,-0.2433,-0.2537,-0.2427,-0.2417,-0.2155,-0.2049,-0.1984,-0.2151,-0.2058,-0.2075,-0.2097,-0.206,-0.2022,-0.1816,-0.1819,-0.1821,-0.1823,-0.1825,0,-0.2152,-0.2156,-0.2164,-0.2172,-0.214,-0.2221,-0.2239,-0.2175,-0.2108,-0.2148,-0.2114,-0.188,-0.1756,-0.1766,-0.1593,-0.1561,-0.1557,-0.1497,-0.1495,-0.1541,-0.1582,-0.1521,-0.1132,-0.1131,-0.1129,-0.1127,0,0,-0.2079,-0.2027,-0.2027,-0.192,-0.1922,-0.1819,-0.1784,-0.1717,-0.1699,-0.1573,-0.1525,-0.1651,-0.1695,-0.1412,-0.1349,-0.1215,-0.1364,-0.1151,-0.1703,-0.1744,-0.1783,-0.1896,-0.1852,0,0,0,0,0]},{"header":{"parameterUnit":"m.s-1","parameterCategory":2,"la1":30.2991,"la2":30.254,"lo1":-89.0895,"lo2":-89.0444,"dy":0.0017,"dx":0.0017,"nx":28,"ny":28,"refTime":"2024-12-15T03:00:00:Z","depth":"2","parameterNumber":3,"parameterNumberName":"V-component_of_CURRENTS"},"data":[0,0,0,0,0,0,0,0,0,0,0,0,0,0,0,0,0,0,0,0,0,0,0,0,0,0,0,0,0,0,0,0,0,0,0,0,0,0,0,0,0,0,0,0,0,0,0,0,0,0,0,0,0,0,0,0,0,0,-0.0293,-0.0292,0,-0.0198,-0.0197,-0.0196,-0.0131,-0.013,-0.013,-0.013,0.0001,0.0004,0.0007,0,0,0,0,0,0,0,0,0,0,0,0,0,-0.0367,-0.0366,-0.0293,-0.0292,-0.0291,-0.0199,-0.0197,-0.0196,-0.0131,-0.013,-0.013,-0.0129,-0.0,0.0003,0.0007,0,0,0,0,0,0,0,0,0,0,0,0,0,-0.0309,-0.0366,-0.0293,-0.0248,-0.0243,-0.0199,-0.0197,-0.0195,-0.0131,-0.013,-0.013,-0.0129,-0.0002,0.0003,0.0008,0.0025,0,0,0.0022,0.0024,0,0,0,0,0,0,0,0,-0.0312,-0.0306,-0.0256,-0.0251,-0.0246,-0.0177,-0.0175,-0.012,-0.0131,-0.0172,-0.013,-0.0129,-0.0057,-0.0047,-0.0029,0.0031,0.0037,0.0022,0.0025,0.0027,0.0029,0,0,0,0,0,0,0,-0.0316,-0.0309,-0.0254,-0.0255,-0.0249,-0.0216,-0.0207,-0.0164,-0.0117,-0.0169,-0.0164,-0.0156,-0.0053,-0.0034,-0.0026,0.0039,0.0022,0.0026,0.0029,0.0031,0.0136,0.0136,0,0,0,0,0,0,-0.0334,-0.0314,-0.0257,-0.0251,-0.028,-0.0215,-0.0205,-0.0198,-0.0118,-0.0106,-0.0156,-0.0153,-0.0042,-0.0031,-0.0021,0.0011,0.0027,0.0032,0.0034,0.0136,0.0136,0.0136,0,0,0,0,0,0,-0.0336,-0.033,-0.0261,-0.0281,-0.027,-0.0215,-0.0207,-0.0197,-0.0178,-0.0109,-0.0096,-0.0149,-0.0042,-0.0028,0.0017,0.0016,0.0034,0.0038,0.0136,0.0136,0.0136,0.0071,0,0,0,0,0,0,-0.0338,-0.0331,-0.0335,-0.0283,-0.027,-0.0244,-0.0208,-0.0196,-0.0175,-0.0169,-0.0098,-0.0086,-0.004,0.0009,0.0021,0.0023,0.0042,0.0136,0.0136,0.0136,0.0073,0.0069,0.0065,0,0,0,0,0,-0.0341,-0.0352,-0.0336,-0.0329,-0.0277,-0.0244,-0.0235,-0.0192,-0.0175,-0.0172,-0.0121,-0.0088,0.0017,0.0013,0.0027,0.003,0.0136,0.0136,0.0136,0.0075,0.007,0.0065,0,0,0,0,0,0,-0.0387,-0.0345,-0.0327,-0.0324,-0.0291,-0.0234,-0.023,-0.02,-0.0157,-0.0152,-0.0086,-0.007,-0.0032,0.0006,-0.0,0.006,0.0081,0.0084,0.003,0.0026,0.0022,0.0002,0.0046,0,0,0,0,0,-0.04,-0.0397,-0.035,-0.0349,-0.0336,-0.0285,-0.0268,-0.0239,-0.0193,-0.0174,-0.0124,-0.007,-0.0022,0.0007,0.0051,0.0085,0.0131,0.0096,0.0091,0.0088,0.0081,0.015,0.0152,0.0135,0.0135,0.0135,0,0,-0.0418,-0.0395,-0.0393,-0.0359,-0.033,-0.0319,-0.0273,-0.0254,-0.024,-0.0167,-0.0136,-0.0085,-0.0017,0.0021,0.0042,0.0055,0.0117,0.0088,0.0084,0.0079,0.0151,0.0152,0.0154,0.0135,0.0135,0.0135,0,0,-0.0458,-0.0433,-0.0445,-0.0423,-0.0388,-0.0352,-0.0351,-0.0298,-0.0269,-0.0234,-0.0176,-0.0124,-0.0058,-0.0003,0.0032,0.0032,0.009,0.0042,0.0012,0.0079,0.0081,0.0083,0.0144,0.0153,0.0044,0.0044,0.0044,0,-0.0483,-0.0488,-0.0444,-0.0449,-0.0438,-0.0373,-0.0381,-0.0341,-0.0279,-0.0254,-0.0235,-0.0122,-0.0067,-0.0004,-0.0005,0.0024,0.0066,0.0024,0.0073,0.0076,0.008,0.0142,0.0152,0.0041,0.0041,0.0042,0.0042,0,-0.0528,-0.0532,-0.0539,-0.0521,-0.0501,-0.0499,-0.044,-0.0411,-0.0368,-0.0321,-0.0257,-0.0175,-0.0105,-0.008,-0.0042,0.0009,0.0033,0.0056,0.0082,0.0077,0.0144,0.0155,0.0036,0.0038,0.0039,0.0039,0,0,-0.0582,-0.0575,-0.0577,-0.0585,-0.0541,-0.053,-0.0501,-0.0452,-0.0428,-0.0359,-0.0318,-0.023,-0.0179,-0.0137,-0.0073,-0.0015,0.0047,0.002,0.0025,0.0075,0.0191,0.0221,0.0237,0.0077,0.0078,0.008,0.0228,0,-0.0632,-0.0673,-0.0642,-0.0665,-0.068,-0.0611,-0.0591,-0.0534,-0.0468,-0.041,-0.031,-0.0252,-0.02,-0.0167,-0.0099,0.0014,0.0074,0.0005,0.0194,0.0199,0.0222,0.025,0.0212,0.0342,0.024,0.0242,0.0243,0,-0.0684,-0.0706,-0.0751,-0.0744,-0.0741,-0.0738,-0.0684,-0.0654,-0.0548,-0.0496,-0.0408,-0.0325,-0.0219,-0.0184,0.0009,-0.0039,0.0062,0.0147,0.0156,0.0212,0.025,0.0332,0.0367,0.0263,0.0261,0.026,0.0259,0,-0.0756,-0.0775,-0.0818,-0.0817,-0.0798,-0.0795,-0.0772,-0.0687,-0.0656,-0.0547,-0.0506,-0.0366,-0.0289,-0.0145,0.0038,0.0023,0.0248,0.0258,0.0382,0.0386,0.0406,0.0408,0.0382,0.0382,0.0382,0.0381,0.0381,0,-0.0823,-0.0852,-0.0859,-0.0884,-0.092,-0.0873,-0.0874,-0.0821,-0.0739,-0.0697,-0.0561,-0.0486,-0.028,-0.012,0.0033,0.0253,0.0255,0.0384,0.043,0.0382,0.0381,0.035,0.0344,0.0387,0.0386,0.0384,0.0383,0,-0.0893,-0.0899,-0.0948,-0.0956,-0.0961,-0.0985,-0.0958,-0.0946,-0.0857,-0.0793,-0.0764,-0.0567,-0.0351,-0.0132,0.0122,0.0251,0.0452,0.0524,0.0452,0.0486,0.0543,0.0532,0.0678,0.068,0.0682,0.0684,0.0685,0,-0.0932,-0.0969,-0.1015,-0.1051,-0.106,-0.1083,-0.1093,-0.1022,-0.0994,-0.0833,-0.0803,-0.0586,-0.0406,-0.0013,0.0246,0.0533,0.0525,0.0646,0.0611,0.0546,0.0576,0.0562,0.0549,0.0618,0.0618,0.0619,0.062,0,-0.1002,-0.1019,-0.106,-0.1145,-0.118,-0.1205,-0.1205,-0.1202,-0.1094,-0.1001,-0.0833,-0.0676,-0.0297,0.0022,0.0379,0.0536,0.0597,0.0667,0.0645,0.0538,0.0499,0.0524,0.0512,0.0625,0.0624,0.0624,0.0624,0.0623,-0.104,-0.1093,-0.1153,-0.1224,-0.1271,-0.1304,-0.1309,-0.1267,-0.1198,-0.1021,-0.0873,-0.0588,-0.0301,0.0225,0.0465,0.0687,0.0685,0.0734,0.0729,0.0723,0.0679,0.0644,0.079,0.0791,0.0791,0.0791,0.0792,0,-0.1084,-0.1144,-0.1225,-0.1301,-0.1354,-0.136,-0.1358,-0.1309,-0.1208,-0.1015,-0.081,-0.0452,-0.0096,0.0208,0.0563,0.0764,0.0737,0.0789,0.071,0.0704,0.0699,0.0649,0.0755,0.0756,0.0756,0.0756,0,0,-0.1108,-0.1195,-0.124,-0.1343,-0.1392,-0.1417,-0.1405,-0.1298,-0.1147,-0.0922,-0.0699,-0.0428,-0.0066,0.0172,0.0421,0.0602,0.0597,0.0615,0.0624,0.0494,0.0487,0.065,0.0567,0,0,0,0,0]}],[{"header":{"parameterUnit":"m.s-1","parameterCategory":2,"la1":30.2991,"la2":30.254,"lo1":-89.0895,"lo2":-89.0444,"dy":0.0017,"dx":0.0017,"nx":28,"ny":28,"refTime":"2024-12-15T03:00:00:Z","depth":"4","parameterNumber":2,"parameterNumberName":"U-component_of_CURRENTS"},"data":[0,0,0,0,0,0,0,0,0,0,0,0,0,0,0,0,0,0,0,0,0,0,0,0,0,0,0,0,0,0,0,0,0,0,0,0,0,0,0,0,0,0,0,0,0,0,0,0,0,0,0,0,0,0,0,0,0,0,-0.1927,-0.1928,0,-0.1996,-0.1996,-0.1997,-0.2038,-0.2038,-0.2039,-0.2039,-0.2097,-0.2098,-0.21,0,0,0,0,0,0,0,0,0,0,0,0,0,-0.183,-0.1832,-0.1927,-0.1928,-0.1929,-0.1996,-0.1996,-0.1997,-0.2038,-0.2038,-0.2039,-0.2039,-0.2097,-0.2098,-0.21,0,0,0,0,0,0,0,0,0,0,0,0,0,-0.1881,-0.1832,-0.1927,-0.1959,-0.1963,-0.1996,-0.1997,-0.1997,-0.2038,-0.2038,-0.2039,-0.2039,-0.2096,-0.2098,-0.21,-0.21,0,0,-0.2106,-0.2106,0,0,0,0,0,0,0,0,-0.1878,-0.1884,-0.1953,-0.1957,-0.1961,-0.2011,-0.1984,-0.2032,-0.2038,-0.2007,-0.2039,-0.204,-0.2068,-0.2072,-0.2081,-0.2103,-0.2106,-0.2106,-0.2107,-0.2108,-0.2108,0,0,0,0,0,0,0,-0.1875,-0.1882,-0.1952,-0.1954,-0.1959,-0.197,-0.1977,-0.1993,-0.2032,-0.201,-0.2013,-0.2024,-0.207,-0.208,-0.2083,-0.2107,-0.2106,-0.2107,-0.2108,-0.2109,-0.2212,-0.2214,0,0,0,0,0,0,-0.187,-0.1878,-0.195,-0.1955,-0.1922,-0.1971,-0.198,-0.1992,-0.2032,-0.204,-0.2024,-0.2026,-0.2076,-0.2081,-0.2085,-0.2164,-0.2108,-0.2109,-0.211,-0.221,-0.2212,-0.2214,0,0,0,0,0,0,-0.1867,-0.1875,-0.1947,-0.1919,-0.193,-0.1972,-0.1987,-0.1994,-0.2036,-0.2043,-0.205,-0.2062,-0.2077,-0.2083,-0.213,-0.2164,-0.211,-0.2112,-0.2208,-0.2211,-0.2213,-0.2273,0,0,0,0,0,0,-0.1864,-0.1874,-0.1898,-0.1919,-0.1931,-0.1989,-0.1986,-0.1995,-0.204,-0.2045,-0.2078,-0.2082,-0.2078,-0.2128,-0.2132,-0.2165,-0.2113,-0.2206,-0.221,-0.2212,-0.2269,-0.2277,-0.2284,0,0,0,0,0,-0.1861,-0.1885,-0.1898,-0.1908,-0.1957,-0.1991,-0.1998,-0.2028,-0.2042,-0.2067,-0.2092,-0.2083,-0.215,-0.2131,-0.2135,-0.217,-0.2205,-0.2209,-0.2212,-0.2266,-0.2276,-0.2284,0,0,0,0,0,0,-0.1857,-0.1892,-0.1907,-0.1943,-0.1976,-0.1999,-0.2029,-0.2048,-0.2088,-0.2102,-0.2105,-0.2111,-0.2164,-0.2161,-0.2139,-0.2209,-0.2176,-0.218,-0.2215,-0.2224,-0.2232,-0.2223,-0.2115,0,0,0,0,0,-0.1866,-0.1895,-0.1927,-0.1959,-0.1978,-0.2011,-0.2035,-0.2057,-0.2087,-0.2107,-0.2132,-0.2156,-0.2178,-0.2197,-0.2215,-0.2255,-0.223,-0.2281,-0.2288,-0.2295,-0.2292,-0.2287,-0.2294,-0.2226,-0.2226,-0.2226,0,0,-0.1874,-0.1897,-0.1916,-0.1961,-0.1989,-0.2025,-0.2027,-0.2075,-0.2111,-0.2106,-0.2173,-0.2188,-0.2195,-0.224,-0.2263,-0.2245,-0.2302,-0.23,-0.2305,-0.2298,-0.2292,-0.2298,-0.2304,-0.2229,-0.2228,-0.2228,0,0,-0.1892,-0.1927,-0.1955,-0.1987,-0.2038,-0.2058,-0.208,-0.2126,-0.2158,-0.2214,-0.2219,-0.2255,-0.2298,-0.2306,-0.2313,-0.2374,-0.2343,-0.2389,-0.2422,-0.2419,-0.2423,-0.2427,-0.2402,-0.2403,-0.2392,-0.2393,-0.2393,0,-0.1903,-0.1939,-0.197,-0.2005,-0.2037,-0.2077,-0.2115,-0.2151,-0.2211,-0.2236,-0.2247,-0.2311,-0.2324,-0.236,-0.2385,-0.2391,-0.2376,-0.2386,-0.2427,-0.243,-0.2433,-0.2406,-0.2406,-0.2396,-0.2395,-0.2395,-0.2395,0,-0.1929,-0.1975,-0.1997,-0.2053,-0.2092,-0.2134,-0.2183,-0.2233,-0.2276,-0.2304,-0.2367,-0.2385,-0.2417,-0.2434,-0.2431,-0.2467,-0.2444,-0.2436,-0.2399,-0.2443,-0.2412,-0.2411,-0.2401,-0.2399,-0.2398,-0.2398,0,0,-0.1905,-0.1998,-0.2008,-0.2044,-0.2123,-0.2151,-0.2223,-0.2282,-0.2324,-0.2384,-0.243,-0.2476,-0.2488,-0.2496,-0.2501,-0.2504,-0.2518,-0.2487,-0.2486,-0.2453,-0.2496,-0.2336,-0.2319,-0.2519,-0.2519,-0.252,-0.2464,0,-0.1918,-0.1985,-0.2033,-0.2105,-0.2142,-0.2207,-0.2264,-0.2327,-0.238,-0.2435,-0.2465,-0.251,-0.2511,-0.2533,-0.254,-0.2527,-0.252,-0.2532,-0.2465,-0.2462,-0.2307,-0.2315,-0.2521,-0.2463,-0.2463,-0.2463,-0.2463,0,-0.1916,-0.1965,-0.2036,-0.2128,-0.2152,-0.2206,-0.2295,-0.2353,-0.2434,-0.2476,-0.2525,-0.2548,-0.258,-0.2569,-0.2559,-0.2569,-0.254,-0.2519,-0.2516,-0.2341,-0.23,-0.2411,-0.2461,-0.2461,-0.2461,-0.2461,-0.2461,0,-0.1857,-0.1961,-0.2018,-0.2052,-0.2163,-0.2215,-0.2277,-0.2367,-0.241,-0.2502,-0.2532,-0.2578,-0.2593,-0.2582,-0.2552,-0.2562,-0.2515,-0.2519,-0.234,-0.2328,-0.2464,-0.246,-0.2496,-0.2496,-0.2496,-0.2496,-0.2496,0,-0.1826,-0.1875,-0.2003,-0.2031,-0.2096,-0.2193,-0.2265,-0.2333,-0.2424,-0.2454,-0.2545,-0.255,-0.2598,-0.258,-0.2554,-0.2429,-0.2514,-0.2331,-0.2299,-0.2491,-0.2491,-0.2463,-0.246,-0.2494,-0.2495,-0.2495,-0.2495,0,-0.1739,-0.183,-0.1896,-0.2026,-0.2069,-0.2115,-0.2241,-0.2279,-0.2388,-0.2427,-0.2455,-0.253,-0.2498,-0.2509,-0.2475,-0.2397,-0.2321,-0.2256,-0.2446,-0.2428,-0.2137,-0.2139,-0.2046,-0.2039,-0.2034,-0.203,-0.2026,0,-0.1694,-0.1724,-0.1864,-0.1899,-0.1962,-0.2052,-0.2101,-0.2237,-0.2268,-0.2378,-0.2367,-0.2395,-0.2417,-0.2225,-0.2276,-0.2194,-0.217,-0.2121,-0.214,-0.2111,-0.209,-0.21,-0.2108,-0.2018,-0.2016,-0.2015,-0.2013,0,-0.1595,-0.1663,-0.1715,-0.1786,-0.1852,-0.1908,-0.1991,-0.1994,-0.2127,-0.2253,-0.2198,-0.2172,-0.2127,-0.2095,-0.2041,-0.1993,-0.2153,-0.2065,-0.2077,-0.2095,-0.2076,-0.2063,-0.2077,-0.1995,-0.1998,-0.2,-0.2001,0,-0.1516,-0.1524,-0.1599,-0.164,-0.1718,-0.1723,-0.1793,-0.1815,-0.1862,-0.1995,-0.1968,-0.2007,-0.2089,-0.1988,-0.1944,-0.1878,-0.1854,-0.1798,-0.1823,-0.1844,-0.1805,-0.1755,-0.1529,0,0,0,0,0,-0.1423,-0.141,-0.1442,-0.1476,-0.1547,-0.1584,-0.1693,-0.1768,-0.1901,-0.1801,-0.1877,-0.1828,-0.1764,-0.1797,-0.1681,-0.1858,-0.1866,-0.1719,-0.1816,-0.1894,-0.1915,-0.189,0,0,0,0,0,0,-0.136,-0.1384,-0.1384,-0.1323,-0.1314,-0.1366,-0.1424,-0.1521,-0.1479,-0.1622,-0.1588,-0.1707,-0.1666,-0.178,-0.1636,-0.1645,-0.1666,-0.1765,-0.1759,-0.1882,-0.1901,-0.1918,-0.19,0,0,0,0,0]},{"header":{"parameterUnit":"m.s-1","parameterCategory":2,"la1":30.2991,"la2":30.254,"lo1":-89.0895,"lo2":-89.0444,"dy":0.0017,"dx":0.0017,"nx":28,"ny":28,"refTime":"2024-12-15T03:00:00:Z","depth":"4","parameterNumber":3,"parameterNumberName":"V-component_of_CURRENTS"},"data":[0,0,0,0,0,0,0,0,0,0,0,0,0,0,0,0,0,0,0,0,0,0,0,0,0,0,0,0,0,0,0,0,0,0,0,0,0,0,0,0,0,0,0,0,0,0,0,0,0,0,0,0,0,0,0,0,0,0,-0.0205,-0.0205,0,-0.0145,-0.0144,-0.0143,-0.0101,-0.0101,-0.0101,-0.01,-0.0005,-0.0003,-0.0001,0,0,0,0,0,0,0,0,0,0,0,0,0,-0.0246,-0.0246,-0.0205,-0.0205,-0.0204,-0.0145,-0.0144,-0.0143,-0.0101,-0.0101,-0.0101,-0.01,-0.0006,-0.0003,-0.0,0,0,0,0,0,0,0,0,0,0,0,0,0,-0.0211,-0.0246,-0.0206,-0.0177,-0.0174,-0.0145,-0.0144,-0.0143,-0.0101,-0.0101,-0.01,-0.01,-0.0007,-0.0003,-0.0,0.0015,0,0,0.0011,0.0012,0,0,0,0,0,0,0,0,-0.0213,-0.0209,-0.0182,-0.0179,-0.0175,-0.0131,-0.0123,-0.0089,-0.0101,-0.0128,-0.01,-0.01,-0.0045,-0.0038,-0.0027,0.002,0.0024,0.0011,0.0013,0.0015,0.0016,0,0,0,0,0,0,0,-0.0215,-0.0211,-0.018,-0.0181,-0.0177,-0.0154,-0.0149,-0.0116,-0.0087,-0.0125,-0.0122,-0.0117,-0.0043,-0.003,-0.0024,0.0025,0.0011,0.0014,0.0016,0.0018,0.0095,0.0095,0,0,0,0,0,0,-0.0227,-0.0214,-0.0182,-0.0179,-0.0195,-0.0154,-0.0148,-0.0145,-0.0088,-0.008,-0.0118,-0.0116,-0.0036,-0.0028,-0.002,0.0005,0.0015,0.0018,0.002,0.0096,0.0095,0.0095,0,0,0,0,0,0,-0.0229,-0.0225,-0.0185,-0.0195,-0.0189,-0.0154,-0.015,-0.0144,-0.0133,-0.0083,-0.0074,-0.0115,-0.0036,-0.0025,0.0007,0.0008,0.0019,0.0023,0.0096,0.0095,0.0095,0.0052,0,0,0,0,0,0,-0.023,-0.0226,-0.0232,-0.0196,-0.0189,-0.0174,-0.0151,-0.0143,-0.0131,-0.0128,-0.0077,-0.0068,-0.0035,0.0001,0.001,0.0013,0.0025,0.0096,0.0096,0.0095,0.0054,0.0051,0.0048,0,0,0,0,0,-0.0232,-0.0241,-0.0233,-0.0229,-0.0197,-0.0175,-0.0169,-0.0141,-0.0132,-0.013,-0.0094,-0.007,0.0007,0.0004,0.0015,0.0019,0.0096,0.0096,0.0095,0.0055,0.0051,0.0048,0,0,0,0,0,0,-0.0262,-0.0236,-0.0227,-0.0228,-0.0207,-0.0168,-0.0167,-0.0148,-0.0119,-0.0117,-0.0069,-0.0057,-0.0029,-0.0001,-0.0005,0.0041,0.0055,0.0057,0.002,0.0017,0.0015,0.0,0.0028,0,0,0,0,0,-0.0273,-0.0274,-0.0243,-0.0246,-0.0238,-0.0205,-0.0194,-0.0175,-0.0144,-0.0131,-0.0095,-0.0057,-0.002,0.0001,0.0033,0.0059,0.0093,0.0069,0.0066,0.0063,0.0058,0.0112,0.0114,0.0095,0.0095,0.0095,0,0,-0.0286,-0.0273,-0.0274,-0.0253,-0.0235,-0.0229,-0.0197,-0.0187,-0.0177,-0.0125,-0.0105,-0.0067,-0.0017,0.0012,0.0028,0.0037,0.0086,0.0063,0.0061,0.0057,0.0112,0.0114,0.0116,0.0095,0.0095,0.0095,0,0,-0.0314,-0.0302,-0.0312,-0.0298,-0.0277,-0.0253,-0.0254,-0.0218,-0.02,-0.0175,-0.0134,-0.0094,-0.0046,-0.0003,0.0024,0.0025,0.0067,0.0032,0.0012,0.0063,0.0066,0.0068,0.0112,0.0119,0.0034,0.0034,0.0034,0,-0.0333,-0.034,-0.0312,-0.0316,-0.0312,-0.0268,-0.0277,-0.0248,-0.0207,-0.0191,-0.0177,-0.0094,-0.0051,-0.0002,-0.0001,0.002,0.005,0.002,0.006,0.0063,0.0066,0.0111,0.0119,0.0032,0.0032,0.0032,0.0032,0,-0.0363,-0.0372,-0.0377,-0.0368,-0.0357,-0.0359,-0.0319,-0.03,-0.0273,-0.0241,-0.0194,-0.013,-0.008,-0.0057,-0.0027,0.0015,0.003,0.0047,0.0067,0.0065,0.0113,0.0122,0.0029,0.0029,0.003,0.0031,0,0,-0.0398,-0.04,-0.0404,-0.0415,-0.0388,-0.0384,-0.0365,-0.0335,-0.0323,-0.0269,-0.0245,-0.0171,-0.0135,-0.0102,-0.0051,-0.0001,0.005,0.0025,0.0028,0.0065,0.0158,0.0139,0.0147,0.0072,0.0074,0.0075,0.0183,0,-0.0433,-0.0467,-0.0449,-0.0475,-0.0488,-0.0446,-0.0435,-0.04,-0.0355,-0.0318,-0.0237,-0.0198,-0.0151,-0.0127,-0.0068,0.002,0.0071,0.0019,0.0157,0.0161,0.0142,0.0156,0.0079,0.019,0.0192,0.0193,0.0194,0,-0.0466,-0.0488,-0.0529,-0.0539,-0.054,-0.0545,-0.052,-0.0502,-0.043,-0.0394,-0.0328,-0.0265,-0.0178,-0.0144,0.0011,-0.0027,0.0055,0.0126,0.0132,0.0134,0.0158,0.0194,0.0211,0.021,0.0208,0.0207,0.0206,0,-0.0513,-0.0539,-0.058,-0.0584,-0.0585,-0.0593,-0.0586,-0.0533,-0.0517,-0.0442,-0.0417,-0.0305,-0.0246,-0.0127,0.0021,0.0015,0.019,0.0204,0.0267,0.0267,0.0271,0.0268,0.0306,0.0306,0.0306,0.0305,0.0305,0,-0.0554,-0.0586,-0.0613,-0.0636,-0.0682,-0.0656,-0.0675,-0.0643,-0.0593,-0.0571,-0.0466,-0.0413,-0.0241,-0.0117,0.0011,0.0167,0.0187,0.0265,0.0295,0.025,0.0243,0.0278,0.0273,0.031,0.0309,0.0308,0.0307,0,-0.0592,-0.0611,-0.0663,-0.0694,-0.0709,-0.074,-0.0749,-0.075,-0.0695,-0.0657,-0.0637,-0.0488,-0.0324,-0.0148,0.0059,0.0148,0.03,0.0349,0.0287,0.0311,0.0345,0.0337,0.0427,0.0427,0.0427,0.0427,0.0427,0,-0.0612,-0.0647,-0.0717,-0.0759,-0.078,-0.0821,-0.0845,-0.081,-0.0796,-0.0695,-0.0673,-0.0517,-0.0401,-0.0112,0.006,0.0299,0.0328,0.0395,0.037,0.0338,0.0358,0.035,0.0341,0.0428,0.0428,0.0428,0.0428,0,-0.0648,-0.0681,-0.0725,-0.0819,-0.087,-0.0911,-0.0933,-0.0932,-0.0868,-0.0826,-0.0681,-0.0521,-0.0334,-0.0112,0.0072,0.0242,0.0344,0.0398,0.0398,0.0375,0.034,0.0358,0.035,0.0429,0.0428,0.0428,0.0428,0,-0.0671,-0.0716,-0.0785,-0.0858,-0.093,-0.0969,-0.098,-0.094,-0.0912,-0.0786,-0.0741,-0.0522,-0.039,-0.0141,0.0031,0.0192,0.0227,0.0263,0.0271,0.0272,0.0188,0.0118,0.0166,0,0,0,0,0,-0.0684,-0.0736,-0.0816,-0.0892,-0.0963,-0.0995,-0.1018,-0.1007,-0.0953,-0.0856,-0.0789,-0.0605,-0.0325,-0.0197,-0.0037,0.0009,0.023,0.0197,0.0269,0.0432,0.0432,0.0357,0,0,0,0,0,0,-0.0694,-0.0771,-0.0813,-0.0898,-0.0951,-0.1012,-0.1026,-0.0994,-0.0922,-0.0845,-0.0687,-0.0585,-0.031,-0.0408,-0.0036,0.0013,0.0074,0.0337,0.034,0.0433,0.0432,0.0431,0.0354,0,0,0,0,0]}]]